map of TNG home
TNG - Airport
Location
City:  Tangier, Tanger-Tétouan, Morocco
Near (Alt.):Tanger
Name:Ibn Batouta Airport
Old (Alt.):Boukhalef Airport
ICAO:GMTT
IATA:TNG

Details
Type:Airport (Aerodrome, Airfield)
Use:Public/Civil, International (customs port of entry)
Latitude:35°43'54"N (35.731667)
Longitude:5°55'16"W (-5.921110)
Elevation:69 ft (21 m)
Variation:1.18°W (WMM2015 magnetic declination)
0.11° annual change
Runways:1
Longest:11483 × 148 ft (3500 × 45 m), paved

Time
Time Zone:UTC+0 (DST+1)
Local Time:

Weather
METAR:GMTT 191500Z AUTO 32007KT 290V360 9999NDV /// 16/10 Q1025
TAF:GMTT 182300Z 1900/2006 VRB02KT 6000 FEW016 SCT100 PROB30
TEMPO 1910/1915 28008KT 5000 RA SCT010 BKN015

Related Locations
Nearby:
Farthest:NZRW: 12438 mi / 20017 km
Ruawai, NTL, NZ

Find:

   beyond  
but within

Other Information
Maps:
NOTAMs:
Links:
Sources:

  
  • flag of Morocco
  

Sectional Chart

Flight Planning
at skyvector.com

Satellite Image

Google Maps Satellite view

 

Copyright © 2004-2018 Karl L. Swartz. All rights reserved.
The Great Circle Mapper name and logo are trademarks of the Great Circle Mapper.
All other trademarks mentioned herein belong to their respective owners.
Please see credits for attibutions and further copyright information.

  Follow gcmap on Facebook Follow gcmap on Twitter Follow gcmap on Google+ GCmap on LinkedIn

hCard Microformat

Geo Microformat